Watsonville, CA

10:41 AM PST on November 22, 2017 (GMT -0800)
Watsonville Municipal

Weather History for KWVI - November, 2011

Change the Weather History Date:

Saturday, November 5, 2011

  Actual Average Record
Temperature  
Mean Temperature 48 °F 57 °F  
Max Temperature 57 °F 69 °F 93 °F (2012)
Min Temperature 38 °F 45 °F 38 °F (2011)
Degree Days  
Heating Degree Days 17    
Month to date heating degree days 47  
Since 1 July heating degree days 363  
Cooling Degree Days 0    
Month to date cooling degree days 0  
Year to date cooling degree days 111  
Moisture  
Dew Point 43 °F    
Average Humidity 75    
Maximum Humidity 93    
Minimum Humidity 57    
Precipitation  
Precipitation 0.88 in - 0.88 in (2011)
Month to date precipitation 1.00  
Year to date precipitation 21.23  
Since 1 July precipitation 3.05  
Sea Level Pressure  
Sea Level Pressure 29.99 in    
Wind  
Wind Speed 3 mph (NW)    
Max Wind Speed 10 mph    
Max Gust Speed 26 mph    
Visibility 8 miles    
Events Rain    
T = Trace of Precipitation, MM = Missing Value Source: NWS Daily Summary

Daily Weather History Graph

Daily Weather History Graph

Search for Another Location

Airport or City:

Trip Planner

Search our weather history database for the weather conditions in past years. The results will help you decide how hot, cold, wet, or windy it might be!

Date:

Astronomy

Nov. 05, 2011 Rise Set
Actual Time 7:35 AM PDT 6:05 PM PDT
Civil Twilight 7:07 AM PDT 6:33 PM PDT
Nautical Twilight 6:37 AM PDT 7:03 PM PDT
Astronomical Twilight 6:06 AM PDT 7:34 PM PDT
Moon 3:20 PM PDT (11/5) 2:56 AM PDT (11/5)
Length of Visible Light 11h 25m
Length of Day
10h 30m
Waxing Gibbous, 79% of the Moon is Illuminated
Nov 5
Waxing Gibbous
Nov 10
Full
Nov 18
Last Quarter
Nov 24
New
Dec 2
First Quarter

Hourly Weather History & Observations

Time (PDT) Temp. Windchill Dew Point Humidity Pressure Visibility Wind Dir Wind Speed Gust Speed Precip Events Conditions
12:53 AM 41.0 °F 38.0 °F 36.0 °F 82% 29.96 in 10.0 mi NW 4.6 mph - N/A   Clear
1:53 AM 39.9 °F 37.8 °F 36.0 °F 86% 29.97 in 10.0 mi NW 3.5 mph - N/A   Clear
2:53 AM 39.9 °F 36.7 °F 36.0 °F 86% 29.97 in 10.0 mi NW 4.6 mph - N/A   Clear
3:53 AM 39.9 °F 36.7 °F 36.0 °F 86% 29.99 in 10.0 mi WNW 4.6 mph - N/A   Clear
5:53 AM 42.1 °F 40.2 °F 37.0 °F 82% 30.00 in 10.0 mi NW 3.5 mph - N/A   Clear
6:53 AM 42.1 °F 40.2 °F 37.0 °F 82% 30.01 in 10.0 mi NNW 3.5 mph - N/A   Scattered Clouds
7:53 AM 43.0 °F - 37.9 °F 82% 30.03 in 10.0 mi Calm Calm - N/A   Scattered Clouds
8:53 AM 45.0 °F - 39.9 °F 82% 30.04 in 10.0 mi Calm Calm - N/A   Overcast
9:53 AM 46.9 °F - 42.1 °F 83% 30.06 in 10.0 mi NNW 3.5 mph - N/A   Overcast
10:53 AM 51.1 °F - 43.0 °F 74% 30.07 in 10.0 mi Calm Calm - N/A   Overcast
11:53 AM 53.1 °F - 43.0 °F 69% 30.07 in 10.0 mi Calm Calm - N/A   Overcast
12:53 PM 55.9 °F - 43.0 °F 62% 30.06 in 10.0 mi SSE 5.8 mph - N/A   Overcast
1:53 PM 57.0 °F - 42.1 °F 57% 30.04 in 10.0 mi South 8.1 mph - N/A   Overcast
2:53 PM 55.9 °F - 44.1 °F 64% 30.04 in 10.0 mi SSW 5.8 mph - N/A   Overcast
3:53 PM 55.9 °F - 44.1 °F 64% 30.01 in 10.0 mi South 5.8 mph - N/A   Overcast
4:53 PM 55.0 °F - 43.0 °F 64% 30.01 in 10.0 mi SSW 5.8 mph - N/A   Overcast
5:53 PM 54.0 °F - 43.0 °F 66% 29.99 in 10.0 mi SSE 4.6 mph - N/A   Overcast
6:53 PM 52.0 °F - 46.0 °F 80% 29.98 in 10.0 mi Calm Calm - 0.01 in Rain Light Rain
7:38 PM 51.8 °F - 46.4 °F 82% 29.95 in 9.0 mi NNW 3.5 mph - 0.01 in Rain Light Rain
7:53 PM 51.1 °F - 46.9 °F 86% 29.95 in 4.0 mi Calm Calm - 0.03 in Rain Rain
8:22 PM 50.0 °F - 46.4 °F 87% 29.95 in 2.0 mi Calm Calm - 0.14 in Rain Heavy Rain
8:43 PM 50.0 °F - 46.4 °F 87% 29.95 in 2.5 mi Calm Calm - 0.26 in Rain Heavy Rain
8:51 PM 50.0 °F - 46.4 °F 87% 29.94 in 3.0 mi Calm Calm - 0.28 in Rain Rain
8:53 PM 50.0 °F - 48.0 °F 93% 29.95 in 3.0 mi North 3.5 mph - 0.29 in Rain Rain
9:41 PM 50.0 °F - 46.4 °F 87% 29.94 in 2.5 mi Calm Calm - 0.21 in Rain Heavy Rain
9:53 PM 50.0 °F - 46.9 °F 89% 29.94 in 1.5 mi Variable 3.5 mph - 0.31 in Rain Heavy Rain
10:03 PM 50.0 °F - 46.4 °F 87% 29.95 in 2.5 mi Variable 3.5 mph - 0.06 in Rain Heavy Rain
10:16 PM 50.0 °F - 46.4 °F 87% 29.94 in 2.0 mi NE 4.6 mph - 0.14 in Rain Heavy Rain
10:27 PM 50.0 °F - 46.4 °F 87% 29.93 in 3.0 mi East 4.6 mph - 0.21 in Rain Heavy Rain
10:53 PM 50.0 °F - 46.9 °F 89% 29.94 in 5.0 mi Calm Calm - 0.24 in Rain Light Rain
11:17 PM 50.0 °F - 46.4 °F 87% 29.95 in 10.0 mi NNW 4.6 mph - 0.00 in Rain Light Rain
11:53 PM 50.0 °F - 46.9 °F 89% 29.95 in 10.0 mi Calm Calm - 0.00 in   Overcast